Simultaneous Nadir Overpasses (SNOs) Predictions

Prediction of SNOs between GOES-15 and METOP-C Satellite Orbit:

Table of predicted SNOs for the next 14.0 days since TLE Epoch: 5/4/2022
Index Date Time (GOES-15) GOES-15 Lat,Lon METOP-C Lat,Lon Distance(km) Time Diff (sec)
1 05/04/2022 18:19:32 -0.17,-128.09 0.79,-132.28 478.10 80
2 05/05/2022 18:01:33 -0.17,-128.06 -0.36,-127.29 88.09 80
3 05/07/2022 06:17:52 0.18,-127.97 -0.69,-131.88 446.20 80
4 05/08/2022 05:59:52 0.18,-127.94 0.39,-126.88 119.68 80
5 05/09/2022 18:16:02 -0.18,-127.94 0.62,-131.44 399.66 80
6 05/10/2022 17:58:03 -0.19,-127.90 -0.54,-126.45 166.21 80
7 05/12/2022 06:17:02 0.19,-127.80 -0.52,-131.04 368.52 80
8 05/13/2022 05:56:21 0.19,-127.77 0.57,-126.04 196.97 80
9 05/14/2022 18:12:32 -0.19,-127.76 0.42,-130.60 323.08 80
10 05/15/2022 17:54:31 -0.19,-127.72 -0.68,-125.60 242.04 80
11 05/17/2022 06:13:30 0.19,-127.61 -0.38,-130.19 294.03 80
